Location: Devore Heights
(34.2372°N, 117.4156°W)
Time: 05:06:55
(UTC+00:00)

A-11 Canister half - Pass Details

Date: 20 September 2024
Orbit: 1515 x 1684 km, 47.2° (Epoch: 08 October)

Event Time Altitude Azimuth Distance (km) Brightness Sun altitude
Rises 04:54:34 0° 296° (WNW) 4,694 12.5 -37.2°
Reaches altitude 10° 04:57:56 10° 304° (NW) 3,696 11.7 -37.8°
Maximum altitude 05:06:31 40° 12° (NNE) 2,118 9.7 -39.2°
Enters shadow 05:07:23 39° 24° (NNE) 2,140 9.7 -39.4°
